Overview Statistics Trail Chart Weather Telemetry Raw packets
 

This is the latest recevied weather packets stored in our database for station/object LU3MCV-13. If no packets are shown the sender has not sent any weather packets the latest 10 day(s).

<< 27 28 29 30 31 32 33 >>
Time Temp. Humidity Pressure Rain* Wind** Luminosity Snow
1777391779 21.11° C 10% 933 hPa - - - -
1777390879 20° C 11% 933.2 hPa - - - -
1777389979 20° C 11% 933.5 hPa - - - -
1777389079 20° C 11% 933.7 hPa - - - -
1777388179 20° C 11% 933.9 hPa - - - -
1777387280 18.89° C 13% 934 hPa - - - -
1777386380 18.89° C 10% 934.1 hPa - - - -
1777385479 17.78° C 16% 934.5 hPa - - - -
1777384579 17.22° C 16% 934.7 hPa - - - -
1777383680 16.11° C 20% 934.9 hPa - - - -
1777382779 15° C 20% 935.1 hPa - - - -
1777381879 13.89° C 22% 935.2 hPa - - - -
1777380979 13.89° C 22% 935.2 hPa - - - -
1777380080 12.78° C 23% 935.2 hPa - - - -
1777379179 12.22° C 23% 935.1 hPa - - - -
1777378280 12.22° C 23% 935.1 hPa - - - -
1777377379 12.22° C 23% 935 hPa - - - -
1777376479 11.11° C 23% 935.1 hPa - - - -
1777375579 11.11° C 23% 935 hPa - - - -
1777374679 11.11° C 24% 935.1 hPa - - - -
1777373779 11.11° C 23% 935.1 hPa - - - -
1777372879 12.22° C 23% 935.2 hPa - - - -
1777371979 12.22° C 23% 935.1 hPa - - - -
1777371079 12.22° C 23% 935.1 hPa - - - -
1777370179 12.22° C 23% 934.9 hPa - - - -

* Rain since midnight (hover to see other rain measurements)
** Current wind speed in m/s (hover to see current wind gust speed)